Mombasa, Kenya

12:46 PM EAT on June 27, 2017 (GMT +0300)
Mombasa

Weather History for HKMO - January, 2013

Change the Weather History Date:

Tuesday, January 22, 2013

  Actual Average Record
Temperature  
Mean Temperature 84 °F -  
Max Temperature 91 °F 93 °F 95 °F (2006)
Min Temperature 76 °F 72 °F 70 °F (2017)
Cooling Degree Days 18    
Growing Degree Days 34 (Base 50)    
Moisture  
Dew Point 74 °F    
Average Humidity 76    
Maximum Humidity 94    
Minimum Humidity 45    
Precipitation  
Precipitation 0.00 in 0.03 in - ()
Sea Level Pressure  
Sea Level Pressure 29.88 in    
Wind  
Wind Speed 8 mph ()    
Max Wind Speed 21 mph    
Max Gust Speed -    
Visibility 8.6 miles    
Events      
Averages and records for this station are not official NWS values.
T = Trace of Precipitation, MM = Missing Value Source: Averaged Metar Reports

Daily Weather History Graph

Daily Weather History Graph

Search for Another Location

Airport or City:

Trip Planner

Search our weather history database for the weather conditions in past years. The results will help you decide how hot, cold, wet, or windy it might be!

Date:

Astronomy

Jan. 22, 2013 Rise Set
Actual Time 6:23 AM EAT 6:42 PM EAT
Civil Twilight 6:01 AM EAT 7:04 PM EAT
Nautical Twilight 5:35 AM EAT 7:30 PM EAT
Astronomical Twilight 5:10 AM EAT 7:56 PM EAT
Moon 2:57 PM EAT (1/22) 2:20 AM EAT (1/22)
Length of Visible Light 13h 02m
Length of Day
12h 18m
Waxing Gibbous, 80% of the Moon is Illuminated
Jan 22
Waxing Gibbous
Jan 27
Full
Feb 3
Last Quarter
Feb 10
New
Feb 17
First Quarter

Hourly Weather History & Observations

Time (EAT) Temp. Heat Index Dew Point Humidity Pressure Visibility Wind Dir Wind Speed Gust Speed Precip Events Conditions
12:00 AM 78.8 °F - 75.2 °F 89% 29.92 in 6.2 mi Calm Calm - N/A   Partly Cloudy
3:00 AM 78 °F - 74 °F 84% 29.86 in 19 mi NNE 5.8 mph - -   Scattered Clouds
3:00 AM 77.0 °F - 73.4 °F 89% 29.86 in 6.2 mi NNE 5.8 mph - N/A   Partly Cloudy
4:00 AM 78.8 °F - 75.2 °F 89% 29.86 in 6.2 mi Calm Calm - N/A   Scattered Clouds
5:00 AM 77.0 °F - 75.2 °F 94% 29.86 in 6.2 mi Calm Calm - N/A   Partly Cloudy
6:00 AM 77.0 °F - 75.2 °F 94% 29.89 in 6.2 mi NW 4.6 mph - N/A   Scattered Clouds
7:00 AM 78.8 °F - 75.2 °F 89% 29.92 in 6.2 mi West 4.6 mph - N/A   Mostly Cloudy
9:00 AM 83 °F - 75 °F 70% 29.95 in 19 mi North 9.2 mph - -   Mostly Cloudy
9:00 AM 84.2 °F 92.3 °F 75.2 °F 74% 29.95 in 6.2 mi North 9.2 mph - N/A   Mostly Cloudy
11:00 AM 87.8 °F 93.8 °F 71.6 °F 58% 29.95 in 6.2 mi NE 9.2 mph - N/A   Scattered Clouds
12:00 PM 89.6 °F 96.2 °F 71.6 °F 55% 29.92 in 6.2 mi NE 11.5 mph - N/A   Scattered Clouds
3:00 PM 91 °F - 72 °F 45% 29.83 in 19 mi East 20.7 mph - -   Scattered Clouds
3:00 PM 91.4 °F 98.4 °F 71.6 °F 52% 29.83 in 6.2 mi East 20.7 mph - N/A   Partly Cloudy
5:00 PM 86.0 °F 91.8 °F 71.6 °F 62% 29.83 in 6.2 mi NE 20.7 mph - N/A   Partly Cloudy
6:00 PM 84.2 °F 89.6 °F 71.6 °F 66% 29.83 in 6.2 mi NE 18.4 mph - N/A   Partly Cloudy
7:00 PM 82.4 °F 88.2 °F 73.4 °F 74% 29.83 in 6.2 mi ENE 20.7 mph - N/A   Partly Cloudy
8:00 PM 80.6 °F 85.4 °F 73.4 °F 79% 29.86 in 6.2 mi ENE 20.7 mph - N/A   Partly Cloudy
9:00 PM 80 °F - 75 °F 79% 29.88 in 19 mi NE 18.4 mph - -   Scattered Clouds
9:00 PM 80.6 °F 86.2 °F 75.2 °F 84% 29.89 in 6.2 mi NE 18.4 mph - N/A   Partly Cloudy
10:00 PM 80.6 °F 86.2 °F 75.2 °F 84% 29.89 in 6.2 mi NE 18.4 mph - N/A   Partly Cloudy
11:00 PM 78.8 °F - 73.4 °F 83% 29.92 in 6.2 mi NNE 12.7 mph - N/A   Partly Cloudy